Regional Weather Roundup
Issued by NWS Upton, NY

Current Version | Previous Version | Text Only | Print | Product List | Glossary On
Versions: 1 2 3 4 5 6 7 8 9 10 11 12 13 14 15 16 17 18 19 20 21 22 23 24 25 26 27 28 29 30 31 32 33 34 35 36 37 38 39 40 41 42 43 44 45 46 47 48 49 50
000
ASUS41 KOKX 041104
RWROKX

REGIONAL WEATHER ROUNDUP
NATIONAL WEATHER SERVICE NEW YORK NY
700 AM EDT WED MAY 04 2016

NOTE: "FAIR" INDICATES FEW OR NO CLOUDS BELOW 12,000 FEET WITH NO
SIGNIFICANT WEATHER AND/OR OBSTRUCTIONS TO VISIBILITY.

NYZ071-072-176-178-NJZ106-104-041200-
NEW YORK CITY METRO AREA


CITY           SKY/WX    TMP DP  RH WIND       PRES   REMARKS
CENTRAL PARK   LGT RAIN  49  45  86 VRB7      29.83R FOG
LAGUARDIA APRT LGT RAIN  50  47  89 E16       29.81R FOG
KENNEDY INTL   LGT RAIN  49  46  90 NE9       29.82S
NEWARK/LIBERTY LGT RAIN  51  47  86 E7        29.81R
BRNX BOT. GARD   N/A     48  45  87 NE8       29.82R
TETERBORO      LGT RAIN  50  44  80 E6        29.81R
$$

NYZ177-179-078>081-041200-
LONG ISLAND NEW YORK

CITY           SKY/WX    TMP DP  RH WIND       PRES   REMARKS
FARMINGDALE    CLOUDY    49  45  86 N3        29.83R
ISLIP          NOT AVBL
SHIRLEY        CLOUDY    49  46  90 CALM      29.83R
RIVERHEAD        N/A     48  46  93 SE3       29.80F
WESTHAMPTON    CLOUDY    44  44 100 NE10      29.82S
EAST HAMPTON   CLOUDY    47  44  90 NE6       29.81S
MONTAUK POINT    N/A     48  44  86 NE8G17    29.83F
$$

NYZ052-065-067-041200-
HUDSON VALLEY

CITY           SKY/WX    TMP DP  RH WIND       PRES   REMARKS
WHITE PLAINS   CLOUDY    48  46  93 VRB5      29.82R
NEWBURGH       LGT RAIN  48  48 100 SE7       29.82R FOG
MONTGOMERY     LGT RAIN  50  47  89 SE8       29.81R
POUGHKEEPSIE   LGT RAIN  50  45  83 CALM      29.82R
ALBANY         CLOUDY    49  47  93 E3        29.81R
$$

NJZ001-105-106-008-010-013-015-019>022-104-041200-
NEW JERSEY

CITY           SKY/WX    TMP DP  RH WIND       PRES   REMARKS
NEWARK/LIBERTY LGT RAIN  51  47  86 E7        29.81R
TETERBORO      LGT RAIN  50  44  80 E6        29.81R
CALDWELL       LGT RAIN  49  45  86 CALM      29.82R
MORRISTOWN     LGT RAIN  48  48 100 CALM      29.82R FOG
SOMERVILLE     LGT RAIN  49  47  93 E3        29.78F FOG
SUSSEX         RAIN      50  48  93 CALM      29.80S FOG
ANDOVER          N/A     50  48  93 CALM      29.79S
TRENTON        CLOUDY    49  46  90 E10       29.78F
MILLVILLE      CLOUDY    49  48  97 E8        29.76R
ATLANTIC CITY  CLOUDY    49  48  97 NE14      29.75F FOG
WRIGHTSTOWN    CLOUDY    48  48 100 NE8       29.76S
TOMS RIVER     CLOUDY    48  45  87 NE10      29.80R
BELMAR         CLOUDY    48  46  93 NE10      29.80R
$$

PAZ047>061-062-071-041200-
EASTERN PENNSYLVANIA

CITY           SKY/WX    TMP DP  RH WIND       PRES   REMARKS
PHILADELPHIA   CLOUDY    51  47  86 E12       29.78R
ALLENTOWN      LGT RAIN  51  47  86 E6        29.78R
SCRANTON       LGT RAIN  51  49  92 E3        29.75S FOG
$$

CTZ002-004>006-009-010-012-RIZ004-006-007-MAZ004-011-015-041200-
SOUTHERN NEW ENGLAND
 IN CT

CITY           SKY/WX    TMP DP  RH WIND       PRES   REMARKS
BRADLEY INTL   CLOUDY    48  44  86 N7        29.84R
HARTFORD       CLOUDY    51  43  74 N5        29.85R
DANBURY        CLOUDY    48  43  82 E6        29.83S
WTRBRY/OXFORD  CLOUDY    46  41  81 CALM      29.84R
BRIDGEPORT     CLOUDY    50  42  74 E8        29.83R
MERIDEN        CLOUDY    50  43  77 NE3       29.84R
NEW HAVEN      CLOUDY    49  43  80 NE7       29.83R
CHESTER        CLOUDY    46  43  87 NE3       29.83R
GROTON         CLOUDY    48  47  96 NE10      29.83S
WILLIMANTIC    CLOUDY    49  41  74 NE9       29.85R

 IN RI

CITY           SKY/WX    TMP DP  RH WIND       PRES   REMARKS
PROVIDENCE     CLOUDY    46  42  86 NE8       29.87R
BLOCK ISLAND   CLOUDY    47  44  90 NE10      29.82F
WESTERLY       CLOUDY    48  42  80 NE8       29.84F

 IN MA

CITY           SKY/WX    TMP DP  RH WIND       PRES   REMARKS
BOSTON         CLOUDY    46  42  86 E8        29.89R
WORCESTER      CLOUDY    42  40  92 E7        29.85R
WESTFIELD      CLOUDY    47  44  90 N3        29.85R
PROVINCETOWN   CLOUDY    45  43  93 E9        29.87S
NANTUCKET      CLOUDY    47  43  86 NE13      29.83R
$$

ANZ330-335-338-340-345-350-353-355-041200-
COASTAL MARINE OBSERVATIONS


STATION/POSITION TIME  SKY/WX   TEMP    WIND        PRES    VSBY  WAVE
                                AIR SEA DIR/SP/G                  HT/PER
                 (UTC)          (F)     (DEG/KT/KT) (MB)    (MI)  (FT/S)
NY HARB ENTRANCE 0950            49 50   70/ 12/ 14 1008.8          4/ 6
20S FIRE ISLAND  0950            48 48   70/ 16/ 17 1008.3          4/ 6
GREAT SOUTH BAY  1000            49 55   40/ 10/ 12   N/A
23 SSW MONTAUK P 0950            47 47   60/ 12/ 16 1008.9          4/ 8
15 E BARNEGAT LI 1022               50                N/A           5/ 6
HUDSON CANYON    0950            49 49              1007.0          5/ 6
KINGS POINT      1000            49 54              1009.3
EXECUTION ROCKS  NOT AVBL
CENTRAL LI SOUND 1000            49      70/ 10/ 12   N/A           1
EASTERN LI SOUND 1000            48 47   70/ 10/ 12   N/A
ROBBINS REEF     1000            50      80/  9/ 11 1008.6
$$


>>>>>>>>>>>>>>>>>>>>>>>>>>>> KEY <<<<<<<<<<<<<<<<<<<<<<<<<<<
>                                                          <
>     SKY/WX - SKY CONDITION/PRESENT WEATHER               <
>     TMP    - TEMPERATURE IN FAHRENHEIT                   <
>     DP     - DEWPOINT IN FAHRENHEIT                      <
>     RH     - RELATIVE HUMIDITY IN PERCENT                <
>     WIND   - DIRECTION AND SPEED IN MPH                  <
>     PRES   - MEAN SEA LEVEL PRESSURE IN INCHES OF HG     <
>     WCI    - WIND CHILL INDEX                            <
>     VSB    - VISIBILITY IN MILES                         <
>     HX     - HEAT INDEX                                  <
>     TC     - TEMPERATURE IN CELSIUS                      <
>     VRB    - VARIABLE WIND DIRECTION                     <
>                                                          <
>>>>>>>>>>>>>>>>>>>>>>>>>>>> KEY <<<<<<<<<<<<<<<<<<<<<<<<<<<





USA.gov is the U.S. government's official web portal to all federal, state and local government web resources and services.